Home > Time Zones > World Clock > Weather > Cuba > Havana > Past weeks

Flag for Cuba Weather past 2 weeks in Havana, Cuba

Now
73 °F

Clear.


Feels Like: 72 °F
Forecast: 78 / 91 °F
Wind: No wind

Location: Aeropuerto Jose Marti - Rancho-Boyeros - Habana

Current Time: Sep 5, 2015 at 2:34:10 AM

Latest Report: Sep 5, 2015 at 1:55 AM


Visibility: 6 mi

Pressure: 29.98 "Hg

Humidity: 89%

Dew point: 70 °F

Location of HavanaLocation

Historic Weather in Havana — Graph

°F

Havana temperature yesterday

Maximum temperature yesterday: 91 °F (at 12:55 PM)
Minimum temperature yesterday: 73 °F (at 2:55 AM)
Average temperature yesterday: 80 °F

Past Weeks' High & Low Weather Summary

 TemperatureHumidityPressure
High93 °F (Aug 21, 3:55 PM)94% (Aug 24, 5:55 AM)30.07 "Hg (Aug 24, 5:55 AM)
Low72 °F (Aug 28, 6:55 AM)44% (Aug 22, 2:55 PM)29.86 "Hg (Aug 30, 2:55 AM)
Average81 °F76%29.98 "Hg
* Reported Aug 21 12:55 AM — Sep 5 12:55 AM, Havana, Weather by CustomWeather, © 2015

Note: Actual official high and low records may vary slightly from our data, if they occured in-between our weather recording intervals... More about our weather records

Advertising

Havana weather history for previous 24 hours

 ConditionsComfort  
Time TempWeatherWind HumidityBarometerVisibility
12:55 AM
Sat, Sep 5
73 °FClear.1 mph89%29.98 "Hg6 mi
11:55 PM
Fri, Sep 4
73 °FClear.No wind89%30.01 "Hg6 mi
10:55 PM75 °FClear.2 mph83%30.01 "Hg6 mi
9:55 PM77 °FClear.3 mph79%30.01 "Hg6 mi
8:55 PM77 °FPassing clouds.2 mph79%29.98 "Hg6 mi
7:55 PM77 °FScattered clouds.2 mph79%29.98 "Hg6 mi
6:55 PM79 °FScattered clouds.1 mph74%29.95 "Hg6 mi
5:55 PM79 °FScattered clouds.2 mph70%29.95 "Hg6 mi
4:55 PM81 °FThundershowers. Scattered clouds.12 mph74%29.98 "Hg6 mi
3:55 PM90 °FScattered clouds.12 mph52%29.95 "Hg6 mi
2:55 PM90 °FScattered clouds.10 mph55%29.98 "Hg6 mi
1:55 PM91 °FScattered clouds.2 mph52%29.98 "Hg6 mi
12:55 PM91 °FPartly sunny.5 mph52%30.01 "Hg6 mi
11:55 AM88 °FScattered clouds.2 mph59%30.01 "Hg6 mi
10:55 AM86 °FPassing clouds.2 mph66%30.01 "Hg6 mi
9:55 AM84 °FPassing clouds.2 mph70%30.01 "Hg6 mi
8:55 AM79 °FPassing clouds.3 mph79%30.01 "Hg6 mi
7:55 AM75 °FPassing clouds.2 mph89%29.98 "Hg6 mi
6:55 AM73 °FPassing clouds.2 mph89%29.98 "Hg6 mi
5:55 AM73 °FClear.3 mph89%29.95 "Hg6 mi
4:55 AM73 °FClear.2 mph89%29.95 "Hg6 mi
3:55 AM73 °FClear.No wind89%29.95 "Hg6 mi
2:55 AM73 °FClear.2 mph89%29.95 "Hg6 mi
Weather by CustomWeather, © 2015

See weather overviewHow to use our weather pages